GW0143 Weather Reports


Display with metric or nautical units.
time (UTC)temp
F
wind
direction
speed
MPH
gust
MPH
rain 1hr
in
rain 24hr
in
rain mn
in
humidity
%
barometer
mb
20260509180520 62 354 5.0 9.0 0.00 0.00 0.00 26 1017.8
20260509175520 62 283 6.0 13.0 0.00 0.00 0.00 26 1017.9
20260509174521 62 24 7.0 12.0 0.00 0.00 0.00 26 1017.9
20260509173517 61 38 6.0 14.0 0.00 0.00 0.00 26 1017.8
20260509172521 61 330 5.0 9.0 0.00 0.00 0.00 25 1018.0
20260509171537 61 38 5.0 12.0 0.00 0.00 0.00 26 1018.1
20260509170538 61 30 7.0 14.0 0.00 0.00 0.00 27 1018.1
20260509165521 61 4 6.0 10.0 0.00 0.00 0.00 27 1018.3
20260509164518 60 39 7.0 12.0 0.00 0.00 0.00 26 1018.3
20260509163521 60 20 6.0 9.0 0.00 0.00 0.00 28 1018.2
20260509162518 60 43 5.0 11.0 0.00 0.00 0.00 28 1018.2
20260509161659 59 18 6.0 12.0 0.00 0.00 0.00 28 1018.1
20260509160522 59 43 4.0 8.0 0.00 0.00 0.00 30 1018.2
20260509155522 58 356 3.0 7.0 0.00 0.00 0.00 32 1018.2
20260509154516 57 22 3.0 6.0 0.00 0.00 0.00 36 1018.4
20260509153516 56 43 3.0 8.0 0.00 0.00 0.00 40 1018.5
20260509152523 55 34 5.0 9.0 0.00 0.00 0.00 42 1018.5
20260509151523 54 5 5.0 7.0 0.00 0.00 0.00 46 1018.5
20260509150523 53 21 4.0 8.0 0.00 0.00 0.00 50 1018.6
20260509145523 52 339 4.0 6.0 0.00 0.00 0.00 51 1018.6
20260509144538 52 354 6.0 8.0 0.00 0.00 0.00 49 1018.6
20260509143517 52 354 6.0 8.0 0.00 0.00 0.00 51 1018.6
20260509142518 53 354 5.0 7.0 0.00 0.00 0.00 45 1018.5
20260509141518 53 20 4.0 7.0 0.00 0.00 0.00 46 1018.4
20260509140521 51 325 1.0 3.0 0.00 0.00 0.00 52 1018.4
20260509135542 49 259 1.0 2.0 0.00 0.00 0.00 53 1018.3
20260509134522 48 164 2.0 3.0 0.00 0.00 0.00 53 1018.2
20260509133522 47 165 2.0 4.0 0.00 0.00 0.00 56 1018.3
20260509132522 45 154 2.0 3.0 0.00 0.00 0.00 59 1018.3
20260509131522 42 159 2.0 3.0 0.00 0.00 0.00 66 1018.2
20260509130522 42 300 1.0 3.0 0.00 0.00 0.00 65 1018.2
20260509125522 41 293 1.0 3.0 0.00 0.00 0.00 67 1018.1
20260509124523 39 155 2.0 4.0 0.00 0.00 0.00 66 1018.0
20260509123521 40 249 3.0 5.0 0.00 0.00 0.00 65 1017.8
20260509122521 39 82 4.0 8.0 0.00 0.00 0.00 66 1017.6
20260509121520 39 98 2.0 7.0 0.00 0.00 0.00 65 1017.5
20260509120523 38 229 2.0 3.0 0.00 0.00 0.00 71 1017.4
20260509115521 38 132 4.0 6.0 0.00 0.00 0.00 67 1017.3
20260509114524 37 197 3.0 5.0 0.00 0.00 0.00 73 1017.3
20260509113521 38 100 3.0 6.0 0.00 0.00 0.00 70 1017.3
20260509112521 37 75 2.0 7.0 0.00 0.00 0.00 75 1017.3
20260509111542 37 146 5.0 7.0 0.00 0.00 0.00 76 1017.2
20260509110521 37 143 4.0 5.0 0.00 0.00 0.00 74 1017.2
20260509105525 38 66 2.0 3.0 0.00 0.00 0.00 72 1017.1
20260509104542 35 80 4.0 6.0 0.00 0.00 0.00 78 1017.2
20260509103522 35 196 5.0 7.0 0.00 0.00 0.00 79 1017.2
20260509102522 35 150 5.0 8.0 0.00 0.00 0.00 78 1017.3
20260509101522 34 136 4.0 6.0 0.00 0.00 0.00 80 1017.2
20260509100522 34 197 5.0 7.0 0.00 0.00 0.00 82 1017.2
20260509095543 36 191 4.0 7.0 0.00 0.00 0.00 79 1017.2
20260509094523 36 181 3.0 6.0 0.00 0.00 0.00 79 1017.3
20260509093546 35 201 3.0 5.0 0.00 0.00 0.00 80 1017.4
20260509092526 36 186 2.0 3.0 0.00 0.00 0.00 81 1017.3
20260509091526 36 132 3.0 4.0 0.00 0.00 0.00 80 1017.3
20260509090527 36 116 2.0 2.0 0.00 0.00 0.00 80 1017.5
20260509085538 37 172 4.0 6.0 0.00 0.00 0.00 78 1017.5
20260509084518 36 145 6.0 9.0 0.00 0.00 0.00 79 1017.3
20260509083527 36 101 3.0 4.0 0.00 0.00 0.00 80 1017.4
20260509082527 35 233 3.0 5.0 0.00 0.00 0.00 82 1017.6
20260509081527 35 127 2.0 3.0 0.00 0.00 0.00 83 1017.7
20260509080527 35 155 3.0 4.0 0.00 0.00 0.00 82 1017.8
20260509075529 36 116 2.0 2.0 0.00 0.00 0.00 80 1017.8
20260509074528 37 99 2.0 3.0 0.00 0.00 0.00 80 1017.9
20260509073528 38 96 2.0 3.0 0.00 0.00 0.00 78 1018.0
20260509072520 39 143 4.0 6.0 0.00 0.00 0.00 74 1018.1
20260509071529 39 130 2.0 3.0 0.00 0.00 0.00 76 1018.1
20260509070520 39 142 4.0 6.0 0.00 0.00 0.00 75 1018.2
20260509065520 40 139 5.0 7.0 0.00 0.00 0.00 74 1018.3
20260509064520 41 132 3.0 6.0 0.00 0.00 0.00 71 1018.4
20260509063520 40 142 5.0 6.0 0.00 0.00 0.00 72 1018.4
20260509062529 40 139 2.0 5.0 0.00 0.00 0.00 75 1018.4
20260509061521 41 155 5.0 8.0 0.00 0.00 0.00 73 1018.5
20260509060521 42 143 4.0 8.0 0.00 0.00 0.00 72 1018.5
20260509055521 43 150 5.0 7.0 0.00 0.00 0.00 69 1018.5
20260509054602 44 159 5.0 7.0 0.00 0.00 0.00 67 1018.5
20260509053601 45 155 4.0 6.0 0.00 0.00 0.00 65 1018.4
20260509052521 47 129 4.0 6.0 0.00 0.00 0.00 61 1018.5
20260509051522 48 153 3.0 5.0 0.00 0.00 0.00 59 1018.4
20260509050551 49 184 1.0 3.0 0.00 0.00 0.00 55 1018.4
20260509045522 49 205 6.0 9.0 0.00 0.00 0.00 54 1018.3
20260509044522 49 170 6.0 10.0 0.00 0.00 0.00 57 1018.2
20260509043520 50 210 9.0 14.0 0.00 0.00 0.00 55 1018.3
20260509042519 50 202 10.0 17.0 0.00 0.00 0.00 52 1018.1
20260509041523 50 216 5.0 10.0 0.00 0.00 0.00 57 1018.2
20260509040600 50 199 8.0 15.0 0.00 0.00 0.00 57 1018.3
20260509035517 50 202 9.0 14.0 0.00 0.00 0.00 56 1018.2
20260509034520 49 199 7.0 12.0 0.00 0.00 0.00 60 1018.3
20260509033517 50 149 4.0 6.0 0.00 0.00 0.00 61 1018.1
20260509032532 50 224 4.0 5.0 0.00 0.00 0.00 59 1018.2
20260509031523 51 197 6.0 9.0 0.00 0.00 0.00 56 1018.0
20260509030518 51 188 4.0 6.0 0.00 0.00 0.00 55 1017.9
20260509025518 52 185 4.0 5.0 0.00 0.00 0.00 55 1017.8
20260509024518 53 203 4.0 7.0 0.00 0.00 0.00 53 1017.7
20260509023519 53 211 7.0 10.0 0.00 0.00 0.00 49 1017.4
20260509022524 53 197 7.0 10.0 0.00 0.00 0.00 53 1017.2
20260509021557 53 196 8.0 12.0 0.00 0.00 0.00 51 1017.0
20260509020520 54 197 7.0 10.0 0.00 0.00 0.00 52 1016.9
20260509015519 55 211 8.0 11.0 0.00 0.00 0.00 47 1016.7
20260509014519 55 185 6.0 8.0 0.00 0.00 0.00 51 1016.6
20260509013518 55 201 8.0 11.0 0.00 0.00 0.00 50 1016.5
20260509012518 56 207 7.0 10.0 0.00 0.00 0.00 48 1016.4
20260509011517 58 178 11.0 15.0 0.00 0.00 0.00 43 1016.2
20260509010517 59 179 11.0 15.0 0.00 0.00 0.00 41 1016.1
20260509005519 60 172 12.0 18.0 0.00 0.00 0.00 41 1016.0
20260509004518 60 171 13.0 19.0 0.00 0.00 0.00 40 1016.0
20260509003517 61 174 14.0 19.0 0.00 0.00 0.00 40 1015.9
20260509002518 61 178 13.0 18.0 0.00 0.00 0.00 39 1015.9
20260509001518 59 183 11.0 16.0 0.00 0.00 0.00 42 1015.8
20260509000518 60 182 11.0 16.0 0.00 0.00 0.00 41 1015.8
20260508235519 60 181 12.0 17.0 0.00 0.00 0.00 40 1015.7
20260508234559 61 184 11.0 15.0 0.00 0.00 0.00 40 1015.7
20260508233519 61 190 13.0 17.0 0.00 0.00 0.00 39 1015.7
20260508232519 62 185 11.0 18.0 0.00 0.00 0.00 36 1015.6
20260508231557 61 192 12.0 19.0 0.00 0.00 0.00 37 1015.6
20260508230516 62 199 9.0 13.0 0.00 0.00 0.00 36 1015.5
20260508225519 66 195 10.0 16.0 0.00 0.00 0.00 34 1015.4
20260508224521 67 253 1.0 5.0 0.00 0.00 0.00 23 1015.4
20260508223601 64 16 3.0 4.0 0.00 0.00 0.00 23 1015.4
20260508222521 64 7 4.0 7.0 0.00 0.00 0.00 24 1015.5
20260508221518 64 0 5.0 9.0 0.00 0.00 0.00 24 1015.6
20260508220517 65 72 4.0 9.0 0.00 0.00 0.00 25 1015.6
20260508215538 64 35 4.0 9.0 0.00 0.00 0.00 24 1015.8
20260508214518 64 33 3.0 8.0 0.00 0.00 0.00 25 1015.9
20260508213518 65 352 5.0 10.0 0.00 0.00 0.00 24 1016.0
20260508212518 64 8 3.0 6.0 0.00 0.00 0.00 24 1016.1
20260508211519 65 120 3.0 7.0 0.00 0.00 0.00 22 1016.2
20260508210559 65 348 6.0 10.0 0.00 0.00 0.00 24 1016.1
20260508205519 65 358 6.0 13.0 0.00 0.00 0.00 25 1016.3
20260508204519 64 325 5.0 10.0 0.00 0.00 0.00 26 1016.4
20260508203519 62 319 4.0 7.0 0.00 0.00 0.00 27 1016.5
20260508202517 64 297 3.0 7.0 0.00 0.00 0.00 27 1016.5
20260508201516 64 319 7.0 11.0 0.00 0.00 0.00 28 1016.6
20260508200539 62 270 6.0 12.0 0.00 0.00 0.00 29 1016.7
20260508195520 64 85 5.0 11.0 0.00 0.00 0.00 28 1016.8
20260508194520 63 52 3.0 6.0 0.00 0.00 0.00 29 1017.0
20260508193520 61 192 5.0 8.0 0.00 0.00 0.00 31 1017.0
20260508192520 60 167 4.0 8.0 0.00 0.00 0.00 30 1017.1
20260508191520 60 226 3.0 6.0 0.00 0.00 0.00 31 1017.2
20260508190541 61 302 3.0 8.0 0.00 0.00 0.00 29 1017.3
20260508185541 60 323 4.0 10.0 0.00 0.00 0.00 30 1017.4
20260508184601 60 10 5.0 8.0 0.00 0.00 0.00 30 1017.6
20260508183521 60 239 5.0 9.0 0.00 0.00 0.00 32 1017.7
20260508182521 60 331 5.0 8.0 0.00 0.00 0.00 30 1017.8
20260508181521 59 306 2.0 5.0 0.00 0.00 0.00 30 1017.8